Regional Weather Roundup
Issued by NWS

Home | Current Version | Previous Version | Graphics & Text | Print | Product List | Glossary On
Versions: 1 2 3 4 5 6 7 8 9 10 11 12 13 14 15 16 17 18 19 20 21 22 23 24 25 26 27 28 29 30 31 32 33 34 35 36 37 38 39 40 41 42 43 44 45 46 47 48 49 50
000
ASUS45 KBOU 291410
RWRCO

WEATHER ROUNDUP FOR COLORADO
NATIONAL WEATHER SERVICE PUEBLO CO
800 AM MDT MON JUN 29 2015

NOTE: "FAIR" INDICATES FEW OR NO CLOUDS BELOW 12000 FEET WITH NO
SIGNIFICANT WEATHER AND/OR OBSTRUCTIONS TO VISIBILITY.

COZ001>005-013-030-031-291500-
...NORTHWEST COLORADO...

CITY           SKY/WX    TMP DP  RH WIND       PRES   REMARKS
CRAIG          SUNNY     64  49  57 CALM      30.30S
HAYDEN         SUNNY     64  45  48 E8        30.33R
MEEKER         SUNNY     63  49  60 S3        30.32R
MOUNT WERNER   NOT AVBL
STEAMBOAT SPGS FAIR      60  46  60 CALM      30.35S
WALDEN         FAIR      54  43  66 S5        30.45R
$$

COZ006>008-011-291500-
...WEST CENTRAL VALLEYS...

CITY           SKY/WX    TMP DP  RH WIND       PRES   REMARKS
GRAND JUNCTION MOSUNNY   78  45  30 SE15      30.17R
MONTROSE       PTSUNNY   70  48  45 CALM      30.28R
EAGLE          MOSUNNY   61  48  63 CALM      30.38R
RIFLE          SUNNY     70  49  47 CALM      30.25R
DELTA          NOT AVBL
NUCLA          FAIR      70  45  40 SE8       30.31S
$$

COZ017>023-064>068-291500-
...SOUTHWEST COLORADO...

CITY           SKY/WX    TMP DP  RH WIND       PRES   REMARKS
DURANGO        SUNNY     64  46  52 CALM      30.34R
CORTEZ         SUNNY     68  48  48 CALM      30.28S
PAGOSA SPRINGS FAIR      63  46  53 CALM      30.42R
TELLURIDE      MOSUNNY   60  42  52 SE3       30.53S
WOLF CREEK PAS NOT AVBL
$$

COZ009-010-012-014-032>034-037-058>063-291500-
...CENTRAL COLORADO...

CITY           SKY/WX    TMP DP  RH WIND       PRES   REMARKS
ASPEN          MOSUNNY   64  47  53 CALM      30.41R
BUENA VISTA    FAIR      58  48  71 W5        30.44R
COPPER MTN     MOSUNNY   55  36  47 W12       30.72R
BERTHOUD PASS  FAIR      46  37  71 NW5       30.76S
COTTONWOOD PAS NOT AVBL
GUNNISON       MOSUNNY   57  46  67 NE5       30.48S
KREMMLING      MOSUNNY   55  43  62 CALM      30.44S
LEADVILLE      MOSUNNY   53  45  74 N5        30.56R
MONARCH PASS   CLOUDY    50  36  57 W18G25    30.81R
SALIDA         FAIR      60  50  69 N6        30.48S
NIWOT RIDGE    NOT AVBL
SUNLIGHT       SUNNY     59  41  51 CALM      30.66R
WILKERSON PASS MOSUNNY   55  34  44 NE6       30.68S
$$

COZ069>075-291500-
...SAN LUIS VALLEY/SANGRE DE CRISTO MOUNTAINS...

CITY           SKY/WX    TMP DP  RH WIND       PRES   REMARKS
ALAMOSA        CLOUDY    56  49  77 W7        30.41S
LA VETA PASS   CLOUDY    52  41  66 MISG      30.58R
SAGUACHE       PTSUNNY   57  50  77 N6        30.44R
$$

COZ035-036-038>040-291500-
...NORTHERN COLORADO FRONT RANGE...

CITY           SKY/WX    TMP DP  RH WIND       PRES   REMARKS
DENVER INTL AP MOSUNNY   66  56  70 SE5       30.26R
DMNS CITY PARK NOT AVBL
AURORA         MOSUNNY   67  56  68 N5        30.29R
FRONT RANGE AP PTSUNNY   66  57  72 NE3       30.27R
ERIE MUNI ARPT FAIR      69  57  66 N6        30.27R
BOULDER MUN AP FAIR      70  54  56 NW6       30.27S
CENTENNIAL     PTSUNNY   72  54  53 N17G23    30.29R
BROOMFIELD     MOSUNNY   68  55  64 NW7       30.30R
LOVELAND       SUNNY     70  55  60 NE7       30.27R
LONGMONT       FAIR      73  56  55 NW7       30.28R
$$

COZ041-046-047-076>085-087-088-291500-
...PIKES PEAK/PALMER DIVIDE AND SOUTHERN FOOTHILLS...

CITY           SKY/WX    TMP DP  RH WIND       PRES   REMARKS
COLO. SPRINGS  PTSUNNY   69  50  50 N14       30.28R
A. F. ACADEMY  MOSUNNY   67  49  52 N15       30.31R
ELLICOTT       FAIR     N/A N/A N/A E12       30.29R
FALCON         CLOUDY    66  46  48 N16G22    30.33R
FORT CARSON    PTSUNNY   66  57  71 SE3       30.26R
LIMON          LGT RAIN  62  55  77 SE8       30.26R
MONUMENT HILL  CLOUDY    63  50  63 NW9         N/A
TRINIDAD       PTSUNNY   63  50  62 W8        30.26R
$$

COZ042>045-048>051-090-091-291500-
...NORTHEAST COLORADO...

CITY           SKY/WX    TMP DP  RH WIND       PRES   REMARKS
GREELEY ARPT   SUNNY     68  55  64 CALM      30.24R
AKRON          PTSUNNY   70  56  61 SE13      30.19S
BURLINGTON     CLOUDY    67  55  65 N9        30.20R
WRAY           FAIR      79  51  37 SE7       30.13R
STERLING       FAIR      75  54  46 S7        30.14R
HOLYOKE        FAIR      79  61  53 SW6       30.12S
FORT MORGAN    FAIR      69  -2   6 CALM      30.20R
$$

COZ086-089-092>099-291500-
...SOUTHEAST COLORADO...

CITY           SKY/WX    TMP DP  RH WIND       PRES   REMARKS
PUEBLO         CLOUDY    67  59  75 E5        30.19R
LA JUNTA       CLOUDY    66  59  78 CALM      30.18R
LAMAR          CLOUDY    64  61  90 NW5       30.15R
SPRINGFIELD      N/A     71  54  54 NW6       30.17R
$$



USA.gov is the U.S. government's official web portal to all federal, state and local government web resources and services.